Content
SEND FEEDBACK

Daily
Averages
Monthly
Summary
United States of America

EARTH CITY, MISSOURI


Home > North America > United States > Missouri
Elevation: 476 feet     Latitude: 38 46N     Longitude: 090 30W

WEATHER
 
SELECT A DAY
Number of Records: 203,643;   Date Range: 1/1/95 - 9/16/14
 
SHARE

PRINT THIS DATA

[ ← Previous Day ]
WEATHER ALMANAC - MARCH 14, 2013
[ Next Day → ]
[ °C ]   °F
Weather ElementAverageHighLow
Temperature39.7 °F52 °F (4:51 pm)30 °F (1:51 am)
Dewpoint24.1 °F32 °F (8:51 pm)18 °F (5:51 am)
Humidity54.7 %73 % (11:51 pm)37 % (4:51 pm)
Barometer30.26 in30.42 in (1:51 am)30.12 in (10:51 pm)
Wind Speed8.9 mph17.3 mph (11:47 am)
Wind Gust21.9 mph (11:47 am)
Weather ElementAverage
Visibility9.8 mi
Wind DirectionESE (126.4 °)

Weather ElementTotal
Precipitation---
Heating Degree Days24 (Base 65)
Averaged from 25 records on March 14, 2013
WEATHER CONDITIONS BREAKOUT
WIND DIRECTION BREAKOUT
WEATHER BY HOUR - MARCH 14, 2013
[ °C ]   °F
Local TimeTemperatureDewpointHumidityBarometerVisibilityWind DirectionWind SpeedGust SpeedPrecipitationEventsConditions
1:51 AM30.0 °F19.0 °F64 %30.42 in10.0 miCalmMostly Cloudy
2:51 AM30.0 °F19.9 °F66 %30.42 in10.0 miCalmMostly Cloudy
3:51 AM30.0 °F19.9 °F66 %30.40 in10.0 miCalmMostly Cloudy
4:51 AM30.9 °F19.0 °F61 %30.38 in10.0 miCalmScattered Clouds
5:51 AM33.1 °F18.0 °F54 %30.37 in10.0 miSSE (160°)6.9 mphOvercast
6:51 AM34.0 °F18.0 °F52 %30.37 in10.0 miSouth (170°)5.8 mphMostly Cloudy
7:51 AM35.1 °F18.0 °F50 %30.36 in10.0 miSouth (170°)8.1 mphOvercast
8:51 AM36.0 °F19.0 °F50 %30.36 in10.0 miSouth (180°)9.2 mphOvercast
9:51 AM37.0 °F18.0 °F46 %30.38 in10.0 miSSE (160°)6.9 mphOvercast
10:51 AM37.9 °F18.0 °F45 %30.34 in10.0 miSouth (180°)11.5 mph0.00 inRainLight Rain
11:35 AM37.4 °F24.8 °F60 %30.28 in9.0 miSouth (170°)15.0 mph0.00 inRainLight Rain
11:47 AM37.4 °F24.8 °F60 %30.26 in9.0 miSSE (150°)17.3 mph21.9 mph0.00 inRainLight Rain
11:51 AM37.9 °F25.0 °F60 %30.29 in9.0 miSSE (150°)17.3 mph0.00 inRainLight Rain
12:51 PM43.0 °F27.0 °F53 %30.25 in10.0 miSSE (150°)16.1 mph0.00 inMostly Cloudy
1:51 PM45.0 °F24.1 °F44 %30.22 in10.0 miSouth (190°)11.5 mph20.7 mphMostly Cloudy
2:51 PM48.0 °F24.1 °F39 %30.18 in10.0 miSouth (170°)16.1 mph20.7 mph0.00 inMostly Cloudy
3:51 PM50.0 °F26.1 °F39 %30.16 in9.0 miSSE (160°)15.0 mph20.7 mphMostly Cloudy
4:51 PM52.0 °F26.1 °F37 %30.14 in10.0 miSouth (170°)10.4 mphMostly Cloudy
5:51 PM51.1 °F27.0 °F39 %30.13 in10.0 miSSE (160°)9.2 mphMostly Cloudy
6:51 PM48.9 °F30.0 °F48 %30.13 in10.0 miESE (120°)9.2 mphMostly Cloudy
7:51 PM46.0 °F30.9 °F56 %30.14 in10.0 miESE (110°)10.4 mphMostly Cloudy
8:51 PM43.0 °F32.0 °F65 %30.13 in10.0 miESE (120°)8.1 mphPartly Cloudy
9:51 PM41.0 °F32.0 °F70 %30.13 in10.0 miESE (110°)8.1 mphClear
10:51 PM39.9 °F30.9 °F70 %30.12 in10.0 miESE (110°)4.6 mphPartly Cloudy
11:51 PM37.9 °F30.0 °F73 %30.13 in10.0 miEast (100°)5.8 mphPartly Cloudy
Hourly data recorded from KSTL, located miles away from Earth City, Missouri







STORIES FROM OUR PARTNERS